Regional Weather Roundup
Issued by NWS Tiyan, Guam

Home | Current Version | Previous Version | Text Only | Print | Product List | Glossary On
Versions: 1 2 3 4 5 6 7 8 9 10 11 12 13 14 15 16 17 18 19 20 21 22 23 24 25 26 27 28 29 30 31 32 33 34 35 36 37 38 39 40 41 42 43 44 45 46 47 48 49 50
000
ASGM40 PGUM 210012
RWRGUM
WEATHER ROUNDUP FOR THE MARIANAS
NATIONAL WEATHER SERVICE TIYAN GU
1000 AM CHST TUE OCT 21 2014

GUZ001>004-210100-
MARIANA ISLANDS-

CITY           SKY/WX    TMP DP  RH WIND       PRES   REMARKS
GUAM AIRPORT   MOSUNNY   88  75  66 NE8       29.89S HX  97
ANDERSEN AFB   MOSUNNY   84  75  74 NE13      29.89S HX  92
ROTA AIRPORT   MOSUNNY   82  75  78 N8        29.89R
TINIAN AP      MOSUNNY   84  73  70 E8        29.86S HX  91
SAIPAN AP      MOSUNNY   88  73  62 NE8       29.88R HX  96

$$




USA.gov is the U.S. government's official web portal to all federal, state and local government web resources and services.